Location: Unspecified
(40.5580°N, 0.0000°E)
Time: 04:32:35
(UTC+00:00)

Transit 2A - Visible Passes

Search period start: 04 April 2026 00:00
Search period end: 14 April 2026 00:00
Orbit: 591 x 953 km, 66.7° (Epoch: 29 March)

Date Brightness Start Highest point End Pass type
(mag) Time Alt. Az. Time Alt. Az. Time Alt. Az.
4 Apr 7.9 01:30:35 31° NE 01:30:35 31° NE 01:33:41 10° NNE visible
4 Apr 7.8 03:10:54 24° NW 03:11:08 24° NW 03:16:01 10° N visible
5 Apr 8.4 00:55:04 21° NE 00:55:04 21° NE 00:57:07 10° NE visible
5 Apr 7.6 02:35:23 31° NNW 02:35:23 31° NNW 02:39:56 10° NNE visible
6 Apr 8.8 00:19:31 14° NE 00:19:31 14° NE 00:20:24 10° NE visible
6 Apr 7.6 01:59:49 35° N 01:59:49 35° N 02:03:45 10° NNE visible
6 Apr 8.6 03:40:58 10° NW 03:42:31 11° NNW 03:44:03 10° NNW visible
7 Apr 7.9 01:24:14 32° NNE 01:24:14 32° NNE 01:27:28 10° NNE visible
7 Apr 8.4 03:04:33 14° NW 03:05:36 15° NW 03:08:53 10° N visible
8 Apr 8.2 00:48:36 26° NNE 00:48:36 26° NNE 00:51:07 10° NNE visible
8 Apr 8.2 02:28:54 20° NW 02:28:54 20° NW 02:33:06 10° N visible
9 Apr 8.5 00:12:55 20° NE 00:12:55 20° NE 00:14:38 10° NE visible
9 Apr 8.0 01:53:14 25° NNW 01:53:14 25° NNW 01:57:07 10° N visible
9 Apr 8.8 23:37:13 14° NE 23:37:13 14° NE 23:38:01 10° NE visible
10 Apr 8.0 01:17:31 28° NNW 01:17:31 28° NNW 01:20:59 10° NNE visible
11 Apr 8.1 00:41:46 29° N 00:41:46 29° N 00:44:47 10° NNE visible
11 Apr 8.7 02:22:04 11° NW 02:23:20 12° NW 02:25:31 10° NNW visible
12 Apr 8.2 00:05:59 26° NNE 00:05:59 26° NNE 00:08:28 10° NNE visible
12 Apr 8.5 01:46:16 16° NW 01:46:27 16° NW 01:50:03 10° N visible
12 Apr 8.3 23:30:07 22° NNE 23:30:07 22° NNE 23:32:04 10° NNE visible
13 Apr 8.3 01:10:25 21° NW 01:10:25 21° NW 01:14:11 10° N visible
13 Apr 8.5 22:54:13 17° NE 22:54:13 17° NE 22:55:32 10° NE visible
